Weather History for Krabi, Thailand

Change the Weather History Date:

Sunday, March 23, 2014

  Actual Average (VTSP) Record (VTSP)
Temperature  
Mean Temperature 84 °F -  
Max Temperature 96 °F 92 °F 102 °F (1998)
Min Temperature 71 °F 77 °F 71 °F (2014)
Cooling Degree Days 18    
Growing Degree Days 34 (Base 50)    
Moisture  
Dew Point 66 °F    
Average Humidity 60    
Maximum Humidity 94    
Minimum Humidity 30    
Precipitation  
Precipitation 0.00 in - - ()
Sea Level Pressure  
Sea Level Pressure 29.84 in    
Wind  
Wind Speed 4 mph ()    
Max Wind Speed 12 mph    
Max Gust Speed 23 mph    
Visibility 5.3 miles    
Events      
Averages and records for this station are not official NWS values.
T = Trace of Precipitation, MM = Missing Value Source: Averaged Metar Reports

Daily Weather History Graph

Daily Weather History Graph

Search for Another Location

Airport:

Trip Planner

Search our weather history database for the weather conditions in past years. The results will help you decide how hot, cold, wet, or windy it might be!

Date:

Astronomy

Mar. 23, 2014 Rise Set
Actual Time 6:26 AM ICT 6:34 PM ICT
Civil Twilight 6:06 AM ICT 6:55 PM ICT
Nautical Twilight 5:41 AM ICT 7:19 PM ICT
Astronomical Twilight 5:17 AM ICT 7:44 PM ICT
Moon No Moon Rise 11:31 AM ICT (3/23)
Length of Visible Light 12h 49m
Length of Day
12h 07m
Waning Gibbous, 60% of the Moon is Illuminated
Mar 23
Waning Gibbous
Mar 24
Last Quarter
Mar 31
New
Apr 7
First Quarter
Apr 15
Full

Hourly Weather History & Observations

Time (ICT) Temp. Heat Index Dew Point Humidity Pressure Visibility Wind Dir Wind Speed Gust Speed Precip Events Conditions
1:00 AM 73.4 °F - 68.0 °F 83% 29.86 in 5.0 mi Calm Calm - N/A   Scattered Clouds
2:00 AM 73.4 °F - 68.0 °F 83% 29.83 in 6.2 mi Calm Calm - N/A   Scattered Clouds
3:00 AM 73.4 °F - 68.0 °F 83% 29.83 in 6.2 mi Calm Calm - N/A   Scattered Clouds
5:00 AM 73.4 °F - 69.8 °F 88% 29.83 in 4.3 mi Calm Calm - N/A   Scattered Clouds
6:00 AM 71.6 °F - 69.8 °F 94% 29.86 in 3.7 mi Variable 2.3 mph - N/A   Mostly Cloudy
7:00 AM 71.6 °F - 69.8 °F 94% 29.86 in 3.7 mi NE 3.5 mph - N/A   Partly Cloudy
8:00 AM 78.8 °F - 71.6 °F 78% 29.89 in 5.0 mi ENE 3.5 mph - N/A   Partly Cloudy
9:00 AM 84.2 °F 89.6 °F 71.6 °F 66% 29.89 in 5.0 mi East 8.1 mph - N/A   Partly Cloudy
10:00 AM 89.6 °F 94.7 °F 69.8 °F 52% 29.92 in 5.0 mi Variable 8.1 mph 19.6 mph N/A   Scattered Clouds
11:00 AM 89.6 °F 93.4 °F 68.0 °F 49% 29.89 in 5.6 mi East 9.2 mph - N/A   Scattered Clouds
12:00 PM 95.0 °F 98.5 °F 66.2 °F 39% 29.86 in 5.6 mi East 10.4 mph 23.0 mph N/A   Scattered Clouds
1:00 PM 93.2 °F 94.9 °F 64.4 °F 38% 29.83 in 5.6 mi East 11.5 mph - N/A   Scattered Clouds
2:00 PM 96.8 °F 98.0 °F 62.6 °F 32% 29.80 in 5.6 mi Variable 8.1 mph - N/A   Scattered Clouds
3:00 PM 96.8 °F 99.0 °F 64.4 °F 34% 29.77 in 5.6 mi Variable 10.4 mph - N/A   Mostly Cloudy
4:00 PM 96.8 °F 97.1 °F 60.8 °F 30% 29.77 in 5.6 mi East 11.5 mph - N/A   Scattered Clouds
5:00 PM 93.2 °F 93.3 °F 60.8 °F 34% 29.77 in 5.6 mi ENE 11.5 mph - N/A   Scattered Clouds
6:00 PM 91.4 °F 90.7 °F 59.0 °F 34% 29.80 in 5.6 mi East 10.4 mph - N/A   Scattered Clouds
7:00 PM 86.0 °F 86.6 °F 62.6 °F 45% 29.83 in 5.6 mi East 5.8 mph - N/A   Scattered Clouds
8:00 PM 82.4 °F 83.9 °F 64.4 °F 54% 29.83 in 5.6 mi East 5.8 mph - N/A   Scattered Clouds
9:00 PM 80.6 °F 82.7 °F 66.2 °F 61% 29.86 in 5.6 mi ENE 4.6 mph - N/A   Scattered Clouds
10:00 PM 77.0 °F - 66.2 °F 69% 29.89 in 5.6 mi Calm Calm - N/A   Scattered Clouds
11:00 PM 75.2 °F - 66.2 °F 73% 29.89 in 5.6 mi Calm Calm - N/A   Scattered Clouds